Weather Roundup
Issued by NWS Chicago, IL

Home | Current Version | Previous Version | Text Only | Print | Product List | Glossary On
Versions: 1 2 3 4 5 6 7 8 9 10 11 12 13 14 15 16 17 18 19 20 21 22 23 24 25 26 27 28 29 30 31 32 33 34 35 36 37 38 39 40 41 42 43 44 45 46 47 48 49 50
000
NZUS59 KLOT 030808
HRRLOT

CHICAGO AREA WEATHER ROUNDUP
NATIONAL WEATHER SERVICE CHICAGO/ROMEOVILLE IL
200 AM CST FRI DEC 03 2021

NOTE: "FAIR" INDICATES FEW OR NO CLOUDS BELOW 12,000 FEET WITH NO
SIGNIFICANT WEATHER AND/OR OBSTRUCTIONS TO VISIBILITY.

* THESE STATIONS ARE NOT UNDER NWS QUALITY CONTROL. THEY ALSO MAY NOT
  REPORT WEATHER SUCH AS PRECIPITATION OR FOG.

ILZ005-006-012>014-019>023-030900-
NORTHEAST ILLINOIS

CITY           SKY/WX    TMP DP  RH WIND       PRES   REMARKS
OHARE          CLOUDY    44  29  55 N7        30.04R
MIDWAY         CLOUDY    46  35  65 SW5       30.05R
AURORA         CLOUDY    40  30  67 NE3       30.04R
LANSING*       CLOUDY    40  36  86 S3        30.05R
JOLIET*        CLOUDY    43  34  71 SE3       30.06R
WAUKEGAN       CLOUDY    41  31  67 CALM      30.04R
DUPAGE AIRPORT CLOUDY    43  27  53 CALM      30.04R
WHEELING       CLOUDY    45  26  47 CALM      30.06R
KANKAKEE*      CLEAR     36  34  93 CALM      30.06R
MORRIS*        PTCLDY    37  32  82 CALM      30.04R
LEWIS AIRPORT* CLOUDY    41  33  73 SE3       30.05R
NORTHERLY ISL*   N/A     45  37  73 SW2         N/A
$$

WIZ051-052-058>065-066-070>072-030900-
SOUTHEAST WISCONSIN

CITY           SKY/WX    TMP DP  RH WIND       PRES   REMARKS
MILWAUKEE      LGT RAIN  42  29  59 CALM      30.05R
KENOSHA*       LGT RAIN  41  31  67 CALM      30.05R
RACINE*        CLOUDY    40  32  73 CALM      30.06R
WAUKESHA       CLOUDY    34  28  80 CALM      30.06R
WEST BEND      CLOUDY    34  30  86 CALM      30.04F
$$

INZ001>003-010>013-019-020-030900-
NORTHWEST INDIANA

CITY           SKY/WX    TMP DP  RH WIND       PRES   REMARKS
GARY*          CLOUDY    43  37  79 S3        30.06R
MICHIGAN CITY* NOT AVBL
RENSSELAER*    NOT AVBL
VALPARAISO     CLOUDY    39  35  86 SW5       30.05R
$$

LMZ740>746-030900-
SOUTHERN LAKE MICHIGAN

STATION/POSITION TIME  SKY/WX   TEMP WIND        PRES    VSBY
                                AIR  DIR/SP/G
                 (UTC)          (F)  (DEG/KT/KT) (MB)    (MI)
HARRISON CRIB    0740            44  240/  3/  4   N/A
NORTHERLY ISL    0800            45   CALM  /  5   N/A
CALUMET HARBOR   0730            44   10/  4/  5 1015.7F
BURNS HARBOR     0730            43  170/  3/  4 1017.6F
MICHIGAN CITY    0740            42  180/  4/  5 1018.1F
$$

ABBREVIATIONS USED IN REMARKS
   TC - TEMPERATURE IN CELSIUS
  WCI - WIND CHILL INDEX
   HX - HEAT INDEX
  VSB - VISIBILITY
$$



USA.gov is the U.S. government's official web portal to all federal, state and local government web resources and services.